Regional Weather Roundup
Issued by NWS Albany, NY

Home | Current Version | Previous Version | Graphics & Text | Print | Product List | Glossary Off
Versions: 1 2 3 4 5 6 7 8 9 10 11 12 13 14 15 16 17 18 19 20 21 22 23 24 25 26 27 28 29 30 31 32 33 34 35 36 37 38 39 40 41 42 43 44 45 46 47 48

000
ASUS41 KALY 190710
RWRALY

NEW YORK STATE HOURLY WEATHER ROUNDUP
NATIONAL WEATHER SERVICE ALBANY NY
300 AM EDT THU APR 19 2018

NOTE: "FAIR" INDICATES FEW OR NO CLOUDS BELOW 12,000 FEET WITH NO
SIGNIFICANT WEATHER AND/OR NO OBSTRUCTIONS TO VISIBILITY.

NYZ032-033-038>043-046>054-057>066-NYZ062>081-082-084-190800-
EAST


CITY           SKY/WX    TMP DP  RH WIND       PRES   REMARKS
ALBANY         CLOUDY    38  28  67 W6        29.73F WCI  33
GLENS FALLS    MOCLDY    37  28  70 CALM      29.69F
POUGHKEEPSIE   CLOUDY    39  30  70 CALM      29.72S
NEWBURGH       CLOUDY    39  32  75 CALM      29.72F
MONTGOMERY     CLOUDY    39  33  79 N3        29.70F
WHITE PLAINS   LGT RAIN  42  30  62 CALM      29.73R
ISLIP          LGT RAIN  44  40  85 SE6       29.74F
NEW YORK CITY  LGT RAIN  46  35  65 E6        29.73F
CENTRAL PARK   LGT RAIN  45  33  63 SE8       29.76S
$$

NYZ005>009-017-018-044>046-055-056-190800-
CENTRAL


CITY           SKY/WX    TMP DP  RH WIND       PRES   REMARKS
FULTON           N/A    N/A N/A N/A MISG      29.73R
SYRACUSE       FLURRIES  33  33 100 W8        29.73R WCI  26
ROME           CLOUDY    35  29  78 SW8       29.74R WCI  29
ELMIRA         LGT SNOW  33  32  96 W3        29.76R FOG
BINGHAMTON     CLOUDY    30  27  88 CALM      29.69S
MONTICELLO     FAIR      31  28  89 CALM      29.69F
$$

NYZ026>034-041>043-087-190800-
NORTH


CITY           SKY/WX    TMP DP  RH WIND       PRES   REMARKS
WATERTOWN      CLOUDY    34  34 100 N5        29.71R WCI  30
FORT DRUM      NOT AVBL
OGDENSBURG     FAIR      34  31  90 NW3       29.69F
MASSENA        MOCLDY    34  32  92 W8        29.71F WCI  27
SARANAC LAKE   LGT SNOW  29  29 100 CALM      29.61F FOG
PLATTSBURGH    CLOUDY    36  30  79 S3        29.67F
$$

NYZ001>004-010>016-019>021-085-190800-
WEST


CITY           SKY/WX    TMP DP  RH WIND       PRES   REMARKS
NIAGARA FALLS  CLOUDY    35  27  72 NW3       29.76S
BUFFALO        CLOUDY    33  32  96 CALM      29.76R FOG
DUNKIRK        CLOUDY    32  30  92 CALM      29.77F
JAMESTOWN      CLOUDY    29  27  92 N7        29.70F WCI  22
WELLSVILLE     LGT SNOW  30  28  92 MISG      29.69F VSB 3/4
ROCHESTER      CLOUDY    34  32  92 W7        29.77R WCI  28
PENN YAN       CLOUDY    34  27  75 SW9       29.77R WCI  27
$$

             KEY
       WCI = WIND CHILL INDEX
       VSB = VISIBILITY
       HX  = HEAT INDEX
$$



USA.gov is the U.S. government's official web portal to all federal, state and local government web resources and services.